| time (UTC) | temp F | wind direction | speed MPH | gust MPH | rain 1hr in | rain 24hr in | rain mn in | humidity % | barometer mb |
| 20260901041310 | 55 | 206 | 2.0 | 3.0 | 0.00 | 0.00 | 0.00 | 91 | 1022.2 |
| 20260901040310 | 55 | 193 | 2.0 | 4.0 | 0.00 | 0.00 | 0.00 | 91 | 1022.1 |
| 20260901035310 | 55 | 257 | 2.0 | 4.0 | 0.00 | 0.00 | 0.00 | 91 | 1022.0 |
| 20260901034310 | 55 | 216 | 3.0 | 5.0 | 0.00 | 0.00 | 0.00 | 91 | 1022.2 |
| 20260901033310 | 55 | 221 | 2.0 | 5.0 | 0.00 | 0.00 | 0.00 | 91 | 1022.1 |
| 20260901032311 | 56 | 213 | 2.0 | 5.0 | 0.00 | 0.00 | 0.00 | 91 | 1022.0 |
| 20260901031310 | 56 | 258 | 2.0 | 5.0 | 0.00 | 0.00 | 0.00 | 91 | 1022.0 |
| 20260901030310 | 56 | 222 | 2.0 | 5.0 | 0.00 | 0.00 | 0.00 | 91 | 1021.9 |
| 20260901025310 | 56 | 244 | 3.0 | 7.0 | 0.00 | 0.00 | 0.00 | 91 | 1022.0 |
| 20260901024310 | 56 | 293 | 2.0 | 5.0 | 0.00 | 0.00 | 0.00 | 91 | 1022.0 |
| 20260901023310 | 56 | 269 | 3.0 | 6.0 | 0.00 | 0.00 | 0.00 | 91 | 1022.0 |
| 20260901022310 | 56 | 229 | 2.0 | 5.0 | 0.00 | 0.00 | 0.00 | 91 | 1022.0 |
| 20260901021310 | 56 | 269 | 3.0 | 5.0 | 0.00 | 0.00 | 0.00 | 91 | 1022.0 |
| 20260901015310 | 56 | 218 | 3.0 | 4.0 | 0.00 | 0.00 | 0.00 | 91 | 1022.1 |
| 20260901014310 | 56 | 231 | 3.0 | 4.0 | 0.00 | 0.00 | 0.00 | 91 | 1022.0 |
| 20260901013310 | 56 | 239 | 2.0 | 4.0 | 0.00 | 0.00 | 0.00 | 91 | 1022.0 |
| 20260901012310 | 56 | 221 | 2.0 | 5.0 | 0.00 | 0.00 | 0.00 | 91 | 1022.0 |
| 20260901011310 | 56 | 226 | 2.0 | 5.0 | 0.00 | 0.00 | 0.00 | 91 | 1022.0 |
| 20260901005310 | 57 | 252 | 3.0 | 6.0 | 0.00 | 0.00 | 0.00 | 91 | 1022.0 |
| 20260901004310 | 57 | 271 | 4.0 | 5.0 | 0.00 | 0.00 | 0.00 | 91 | 1022.0 |
| 20260901003310 | 57 | 272 | 3.0 | 7.0 | 0.00 | 0.00 | 0.00 | 91 | 1022.0 |
| 20260901002310 | 57 | 276 | 3.0 | 7.0 | 0.00 | 0.00 | 0.00 | 91 | 1022.1 |
| 20260901001312 | 57 | 271 | 4.0 | 7.0 | 0.00 | 0.00 | 0.00 | 91 | 1022.0 |
| 20260901000314 | 57 | 272 | 4.0 | 7.0 | 0.00 | 0.00 | 0.00 | 91 | 1022.2 |
| 20260831235311 | 57 | 277 | 5.0 | 7.0 | 0.00 | 0.00 | 0.00 | 91 | 1022.1 |
| 20260831234310 | 57 | 283 | 5.0 | 8.0 | 0.00 | 0.00 | 0.00 | 91 | 1022.1 |
| 20260831233310 | 57 | 285 | 5.0 | 8.0 | 0.00 | 0.00 | 0.00 | 90 | 1022.2 |
| 20260831231310 | 58 | 288 | 5.0 | 8.0 | 0.00 | 0.00 | 0.00 | 90 | 1022.4 |
| 20260831230310 | 58 | 286 | 3.0 | 8.0 | 0.00 | 0.00 | 0.00 | 90 | 1022.4 |
| 20260831225310 | 58 | 290 | 4.0 | 7.0 | 0.00 | 0.00 | 0.00 | 90 | 1022.2 |
| 20260831223310 | 58 | 264 | 5.0 | 7.0 | 0.00 | 0.00 | 0.00 | 90 | 1022.3 |
| 20260831222310 | 58 | 293 | 6.0 | 8.0 | 0.00 | 0.00 | 0.00 | 89 | 1022.2 |
| 20260831221310 | 58 | 271 | 5.0 | 8.0 | 0.00 | 0.00 | 0.00 | 89 | 1022.2 |
| 20260831220310 | 58 | 288 | 4.0 | 7.0 | 0.00 | 0.00 | 0.00 | 88 | 1022.3 |
| 20260831214310 | 59 | 271 | 4.0 | 7.0 | 0.00 | 0.00 | 0.00 | 87 | 1022.2 |
| 20260831213309 | 59 | 283 | 3.0 | 6.0 | 0.00 | 0.00 | 0.00 | 86 | 1022.1 |
| 20260831212309 | 60 | 288 | 3.0 | 6.0 | 0.00 | 0.00 | 0.00 | 86 | 1022.2 |
| 20260831211310 | 60 | 279 | 3.0 | 6.0 | 0.00 | 0.00 | 0.00 | 86 | 1022.1 |
| 20260831210310 | 60 | 262 | 3.0 | 6.0 | 0.00 | 0.00 | 0.00 | 85 | 1022.1 |
| 20260831205309 | 60 | 284 | 3.0 | 5.0 | 0.00 | 0.00 | 0.00 | 84 | 1022.2 |
| 20260831204309 | 61 | 278 | 4.0 | 7.0 | 0.00 | 0.00 | 0.00 | 83 | 1022.1 |
| 20260831203309 | 61 | 269 | 3.0 | 4.0 | 0.00 | 0.00 | 0.00 | 83 | 1022.0 |
| 20260831202309 | 61 | 290 | 4.0 | 5.0 | 0.00 | 0.00 | 0.00 | 81 | 1021.9 |
| 20260831201309 | 62 | 257 | 3.0 | 4.0 | 0.00 | 0.00 | 0.00 | 80 | 1021.8 |
| 20260831200309 | 62 | 284 | 3.0 | 4.0 | 0.00 | 0.00 | 0.00 | 79 | 1021.7 |
| 20260831195310 | 62 | 274 | 2.0 | 4.0 | 0.00 | 0.00 | 0.00 | 79 | 1021.6 |
| 20260831194309 | 63 | 276 | 2.0 | 4.0 | 0.00 | 0.00 | 0.00 | 78 | 1021.6 |
| 20260831193309 | 63 | 290 | 2.0 | 4.0 | 0.00 | 0.00 | 0.00 | 77 | 1021.4 |
| 20260831192309 | 64 | 319 | 2.0 | 3.0 | 0.00 | 0.00 | 0.00 | 76 | 1021.2 |
| 20260831191309 | 64 | 314 | 2.0 | 4.0 | 0.00 | 0.00 | 0.00 | 76 | 1021.1 |
| 20260831190309 | 65 | 300 | 3.0 | 5.0 | 0.00 | 0.00 | 0.00 | 75 | 1021.0 |
| 20260831185309 | 65 | 343 | 3.0 | 6.0 | 0.00 | 0.00 | 0.00 | 74 | 1021.0 |
| 20260831184310 | 65 | 318 | 3.0 | 7.0 | 0.00 | 0.00 | 0.00 | 74 | 1021.1 |
| 20260831183309 | 66 | 305 | 3.0 | 8.0 | 0.00 | 0.00 | 0.00 | 73 | 1021.0 |
| 20260831182309 | 66 | 311 | 5.0 | 8.0 | 0.00 | 0.00 | 0.00 | 72 | 1020.9 |
| 20260831181309 | 67 | 281 | 4.0 | 9.0 | 0.00 | 0.00 | 0.00 | 71 | 1020.9 |
| 20260831180309 | 67 | 319 | 3.0 | 7.0 | 0.00 | 0.00 | 0.00 | 70 | 1020.7 |
| 20260831175309 | 67 | 321 | 8.0 | 11.0 | 0.00 | 0.00 | 0.00 | 69 | 1020.6 |
| 20260831174309 | 68 | 278 | 5.0 | 10.0 | 0.00 | 0.00 | 0.00 | 68 | 1020.5 |
| 20260831173308 | 69 | 23 | 5.0 | 8.0 | 0.00 | 0.00 | 0.00 | 68 | 1020.3 |
| 20260831172308 | 69 | 328 | 5.0 | 10.0 | 0.00 | 0.00 | 0.00 | 66 | 1020.3 |
| 20260831171308 | 69 | 325 | 7.0 | 15.0 | 0.00 | 0.00 | 0.00 | 65 | 1020.3 |
| 20260831170309 | 70 | 269 | 6.0 | 9.0 | 0.00 | 0.00 | 0.00 | 65 | 1020.4 |
| 20260831165309 | 69 | 295 | 6.0 | 13.0 | 0.00 | 0.00 | 0.00 | 66 | 1020.3 |
| 20260831163308 | 70 | 302 | 4.0 | 15.0 | 0.00 | 0.00 | 0.00 | 63 | 1020.3 |
| 20260831162308 | 71 | 303 | 6.0 | 16.0 | 0.00 | 0.00 | 0.00 | 62 | 1020.1 |
| 20260831161308 | 71 | 291 | 6.0 | 16.0 | 0.00 | 0.00 | 0.00 | 62 | 1020.2 |
| 20260831160309 | 71 | 302 | 9.0 | 13.0 | 0.00 | 0.00 | 0.00 | 62 | 1020.2 |
| 20260831155308 | 72 | 350 | 5.0 | 16.0 | 0.00 | 0.00 | 0.00 | 64 | 1020.1 |
| 20260831154308 | 71 | 311 | 8.0 | 15.0 | 0.00 | 0.00 | 0.00 | 65 | 1020.0 |
| 20260831153308 | 70 | 312 | 7.0 | 12.0 | 0.00 | 0.00 | 0.00 | 64 | 1020.0 |
| 20260831152309 | 71 | 304 | 5.0 | 15.0 | 0.00 | 0.00 | 0.00 | 64 | 1020.1 |
| 20260831151309 | 71 | 266 | 5.0 | 12.0 | 0.00 | 0.00 | 0.00 | 63 | 1020.1 |
| 20260831150309 | 71 | 291 | 11.0 | 16.0 | 0.00 | 0.00 | 0.00 | 63 | 1020.0 |
| 20260831145309 | 71 | 291 | 11.0 | 19.0 | 0.00 | 0.00 | 0.00 | 61 | 1019.8 |
| 20260831144309 | 71 | 348 | 10.0 | 16.0 | 0.00 | 0.00 | 0.00 | 64 | 1019.6 |
| 20260831143309 | 71 | 300 | 8.0 | 13.0 | 0.00 | 0.00 | 0.00 | 64 | 1019.6 |
| 20260831141309 | 72 | 283 | 5.0 | 18.0 | 0.00 | 0.00 | 0.00 | 63 | 1019.5 |
| 20260831140309 | 72 | 335 | 8.0 | 16.0 | 0.00 | 0.00 | 0.00 | 64 | 1019.4 |
| 20260831135308 | 73 | 298 | 7.0 | 13.0 | 0.00 | 0.00 | 0.00 | 63 | 1019.2 |
| 20260831134309 | 73 | 266 | 11.0 | 18.0 | 0.00 | 0.00 | 0.00 | 63 | 1019.1 |
| 20260831133308 | 73 | 269 | 10.0 | 16.0 | 0.00 | 0.00 | 0.00 | 63 | 1019.1 |
| 20260831132310 | 72 | 284 | 9.0 | 15.0 | 0.00 | 0.00 | 0.00 | 66 | 1018.9 |
| 20260831131309 | 71 | 314 | 6.0 | 13.0 | 0.00 | 0.00 | 0.00 | 66 | 1018.7 |
| 20260831125309 | 72 | 288 | 8.0 | 16.0 | 0.00 | 0.00 | 0.00 | 67 | 1018.7 |
| 20260831124308 | 72 | 63 | 8.0 | 12.0 | 0.00 | 0.00 | 0.00 | 68 | 1018.6 |
| 20260831123308 | 72 | 264 | 8.0 | 18.0 | 0.00 | 0.00 | 0.00 | 66 | 1018.6 |
| 20260831122308 | 73 | 278 | 10.0 | 18.0 | 0.00 | 0.00 | 0.00 | 65 | 1018.6 |
| 20260831121308 | 73 | 288 | 6.0 | 17.0 | 0.00 | 0.00 | 0.00 | 67 | 1018.5 |
| 20260831120311 | 72 | 307 | 8.0 | 19.0 | 0.00 | 0.00 | 0.00 | 68 | 1018.4 |
| 20260831115309 | 72 | 322 | 9.0 | 15.0 | 0.00 | 0.00 | 0.00 | 69 | 1018.3 |
| 20260831114309 | 72 | 309 | 8.0 | 14.0 | 0.00 | 0.00 | 0.00 | 70 | 1018.2 |
| 20260831113310 | 71 | 319 | 8.0 | 19.0 | 0.00 | 0.00 | 0.00 | 71 | 1018.2 |
| 20260831112309 | 71 | 320 | 8.0 | 17.0 | 0.00 | 0.00 | 0.00 | 72 | 1018.2 |
| 20260831111309 | 71 | 322 | 7.0 | 19.0 | 0.00 | 0.00 | 0.00 | 72 | 1017.9 |
| 20260831110309 | 71 | 250 | 8.0 | 19.0 | 0.00 | 0.00 | 0.00 | 73 | 1017.9 |
| 20260831105309 | 71 | 311 | 6.0 | 14.0 | 0.00 | 0.00 | 0.00 | 74 | 1017.8 |
| 20260831104310 | 69 | 290 | 8.0 | 18.0 | 0.00 | 0.00 | 0.00 | 74 | 1017.5 |
| 20260831103309 | 69 | 283 | 10.0 | 17.0 | 0.00 | 0.00 | 0.00 | 75 | 1017.6 |
| 20260831102309 | 69 | 296 | 8.0 | 16.0 | 0.00 | 0.00 | 0.00 | 75 | 1017.4 |
| 20260831101309 | 69 | 279 | 9.0 | 15.0 | 0.00 | 0.00 | 0.00 | 78 | 1017.3 |
| 20260831100309 | 67 | 271 | 6.0 | 17.0 | 0.00 | 0.00 | 0.00 | 79 | 1017.2 |
| 20260831095309 | 67 | 310 | 9.0 | 15.0 | 0.00 | 0.00 | 0.00 | 81 | 1017.2 |
| 20260831094309 | 67 | 279 | 6.0 | 10.0 | 0.00 | 0.00 | 0.00 | 80 | 1017.1 |
| 20260831093309 | 67 | 269 | 6.0 | 13.0 | 0.00 | 0.00 | 0.00 | 80 | 1016.9 |
| 20260831092309 | 67 | 229 | 7.0 | 16.0 | 0.00 | 0.00 | 0.00 | 80 | 1016.9 |
| 20260831091309 | 67 | 327 | 5.0 | 15.0 | 0.00 | 0.00 | 0.00 | 80 | 1016.7 |
| 20260831090309 | 67 | 311 | 8.0 | 17.0 | 0.00 | 0.00 | 0.00 | 80 | 1016.7 |
| 20260831085309 | 67 | 295 | 7.0 | 16.0 | 0.00 | 0.00 | 0.00 | 81 | 1016.6 |
| 20260831084309 | 66 | 288 | 7.0 | 15.0 | 0.00 | 0.00 | 0.00 | 83 | 1016.4 |
| 20260831083309 | 65 | 280 | 11.0 | 20.0 | 0.00 | 0.00 | 0.00 | 84 | 1016.2 |
| 20260831082309 | 65 | 314 | 6.0 | 21.0 | 0.00 | 0.00 | 0.00 | 85 | 1016.1 |
| 20260831081309 | 65 | 222 | 7.0 | 19.0 | 0.00 | 0.00 | 0.00 | 85 | 1015.9 |
| 20260831080309 | 65 | 312 | 9.0 | 18.0 | 0.00 | 0.00 | 0.00 | 85 | 1015.8 |
| 20260831075309 | 65 | 290 | 7.0 | 19.0 | 0.00 | 0.00 | 0.00 | 86 | 1015.7 |
| 20260831073309 | 64 | 279 | 7.0 | 18.0 | 0.00 | 0.00 | 0.00 | 87 | 1015.3 |
| 20260831072309 | 64 | 281 | 8.0 | 20.0 | 0.00 | 0.00 | 0.00 | 88 | 1015.1 |
| 20260831070309 | 63 | 311 | 11.0 | 18.0 | 0.00 | 0.00 | 0.00 | 89 | 1014.8 |
| 20260831065309 | 63 | 152 | 8.0 | 17.0 | 0.00 | 0.00 | 0.00 | 89 | 1014.8 |
| 20260831064309 | 62 | 284 | 10.0 | 16.0 | 0.00 | 0.00 | 0.00 | 90 | 1014.6 |
| 20260831063309 | 62 | 302 | 6.0 | 12.0 | 0.00 | 0.00 | 0.00 | 90 | 1014.5 |
| 20260831062309 | 62 | 281 | 6.0 | 16.0 | 0.00 | 0.00 | 0.00 | 90 | 1014.4 |
| 20260831061309 | 61 | 266 | 5.0 | 13.0 | 0.00 | 0.00 | 0.00 | 91 | 1014.3 |
| 20260831060309 | 61 | 262 | 6.0 | 11.0 | 0.00 | 0.00 | 0.00 | 90 | 1014.1 |
| 20260831055309 | 61 | 269 | 7.0 | 9.0 | 0.00 | 0.00 | 0.00 | 91 | 1014.1 |
| 20260831054309 | 61 | 283 | 8.0 | 13.0 | 0.00 | 0.00 | 0.00 | 91 | 1014.0 |
| 20260831053309 | 61 | 290 | 6.0 | 9.0 | 0.00 | 0.00 | 0.00 | 91 | 1013.9 |
| 20260831051310 | 60 | 262 | 4.0 | 10.0 | 0.00 | 0.00 | 0.00 | 91 | 1013.4 |
| 20260831044309 | 61 | 264 | 5.0 | 10.0 | 0.00 | 0.00 | 0.00 | 91 | 1013.1 |
| 20260831043309 | 61 | 276 | 5.0 | 10.0 | 0.00 | 0.00 | 0.00 | 91 | 1013.1 |